星链-37218(STARLINK-37218)

导读 | 豆包AI

STARLINK-37218(NORAD编号68403)是美国SpaceX公司星链(Starlink)低轨互联网星座中的一颗卫星。2025年12月,该卫星突发异常,轨道高度骤降约4000米,SpaceX判断其可能发生了内部爆炸,卫星随即与地面失联,并产生了数十块碎片。 星链官方称该卫星大致保持完整,处于翻滚状态,预计几周内会再入大气层完全烧毁。目前SpaceX正联合美国太空军、NASA持续监测碎片,这一事件再次引发外界对低轨星座太空碎片问题的关注。

基本信息
目录编号:
68403
目录名称:
STARLINK-37218
国际标识:
2026-063Z
轨道中心:
EARTH
卫星名称:
星链-37218
卫星全名:
星链-37218(STARLINK-37218)
卫星状态:
在轨 (已飞行19 天)
发射日期:
2026-03-26 UTC
国别 :
美国 (US)
星等 :
--
轨道信息
数据来源 国际轨道数据
星历时间: 2026-04-14T20:28:26+0800
4小时前
查看轨道信息
半长轴: 6706.077km
偏心率: 0.0001084
轨道倾角: 97.284°
近地点辐角 76.685°
升交点赤经 246.095°
平近点角 283.454°
近地点: 327.213km
远地点: 328.667km
周期: 91.088分钟
每日圈数: 15.808841
详细信息
固有亮度:
5
最大亮度:
2.5
卫星平台:
Starlink V1.0
覆盖范围:
全球
运营商:
太空探索技术公司
运营商所在国:
美国
制造商(研发单位):
太空探索技术公司
制造商所在国:
美国
使用方式:
暂无
卫星简介
Starlink 计划是 SpaceX 推出的全球卫星互联网项目,通过发射低轨道卫星,为全球尤其是偏远地区提供高速、低延迟的互联网服务。自 2019 年起,Starlink 已部署数千颗卫星,旨在缩小全球数字鸿沟,推动互联网普及。该项目还为军事、航空等行业提供通信支持,带来广泛经济效益。
2D轨道图
3D轨道图
轨道高度分析图
轨道倾角分析图
轨道综合分析图
查看轨道综合分析图